Regional Weather Roundup
Issued by NWS

Home | Current Version | Previous Version | Text Only | Print | Product List | Glossary On
Versions: 1 2 3 4 5 6 7 8 9 10 11 12 13 14 15 16 17 18 19 20 21 22 23 24 25 26 27 28 29 30 31 32 33 34 35 36 37 38 39 40 41 42 43 44 45 46 47 48 49 50
000
ASUS43 KDTX 240701
RWRMI
MICHIGAN HOURLY REGIONAL WEATHER ROUNDUP
NATIONAL WEATHER SERVICE DETROIT/PONTIAC MI
300 AM EDT SUN JUL 24 2016

NOTE: "FAIR" INDICATES FEW OR NO CLOUDS BELOW 12,000 FEET WITH NO
SIGNIFICANT WEATHER AND/OR OBSTRUCTION TO VISIBILITY.

MIZ047>049-052>055-059>063-066>070-074>076-081>083-240800-
SOUTHEAST LOWER MICHIGAN

CITY           SKY/WX    TMP DP  RH WIND       PRES   REMARKS
ADRIAN         CLOUDY    75  71  87 CALM      29.98S
ALMA           CLOUDY    77  66  69 S9G18     29.97R
ANN ARBOR      PTCLDY    74  63  68 E3        29.98S
BAD AXE        CLOUDY    67  58  73 S7        29.99R
CARO           CLOUDY    69  58  69 CALM      29.98R
DETROIT CITY   PTCLDY    76  61  59 SE3       29.98S
DETROIT        PTCLDY    77  59  53 CALM      29.99R
FLINT          CLOUDY    77  60  55 S5        29.98R
GROSSE ILE     PTCLDY    76  66  71 CALM      29.97S
HOWELL         MOCLDY    75  58  55 SE6       29.99R

CITY           SKY/WX    TMP DP  RH WIND       PRES   REMARKS
JACKSON        CLOUDY    76  69  79 CALM      29.99R
LAMBERTVILLE   MOCLDY    76  69  79 E5        29.98S
LANSING        LGT RAIN  78  63  59 SW5       29.99R
LAPEER         FAIR      69  59  70 CALM      29.99R
MASON          CLOUDY    75  63  67 SE5       29.99S
MONROE         MOCLDY    79  72  80 SE6       29.97S
MT. CLEMENS    PTCLDY    73  65  76 E2        29.96F
PONTIAC        PTCLDY    74  61  63 SE3       29.99R
PORT HOPE        N/A     71  61  70 S6        29.96S
PORT HURON     CLOUDY    63  63 100 CALM      29.98F
TRI CITIES     CLOUDY    75  62  64 S8        29.97R
MIDLAND        FAIR      76  63  64 S6        29.95S
TROY           CLEAR     75  60  60 CALM      30.01
SAGINAW HB     MOCLDY    72  61  68 SE5       29.96S
$$
MIZ043>046-050>051-056>058-064>065-071>073-077>080-240800-
SOUTHWEST LOWER MICHIGAN

CITY           SKY/WX    TMP DP  RH WIND       PRES   REMARKS
BATTLE CREEK   CLOUDY    74  71  91 CALM      29.98F
BENTON HARBOR  RAIN      73  71  93 S6        29.97F FOG
BIG RAPIDS     CLOUDY    74  73  96 SW6       29.94F
COLDWATER      CLOUDY    74  72  91 CALM      29.98S
FREMONT        MOCLDY    73  73  99 CALM      29.94S
HOLLAND        RAIN      71  68  90 S9        29.96S
GRAND RAPIDS   LGT RAIN  73  68  84 SW6       29.97F
IONIA          DRIZZLE   74  66  75 SW7       29.97F
KALAMAZOO      LGT RAIN  77  71  82 CALM      29.97F
LUDINGTON      CLOUDY    73  70  91 SW9       29.92S
MARSHALL       CLOUDY    77  70  78 CALM      29.97F
MOUNT PLEASANT CLOUDY    76  64  65 S5        29.95S
MUSKEGON       CLOUDY    73  69  87 S7        29.93F
SOUTH HAVEN    RAIN      72  71  96 CALM      29.96F
$$
MIZ016>042-240800-
NORTHERN LOWER MICHIGAN

CITY           SKY/WX    TMP DP  RH WIND       PRES   REMARKS
ALPENA         CLOUDY    68  58  70 CALM      29.96F
BEAVER ISLAND  CLOUDY    73  65  75 SE6       29.88F
BELLAIRE       CLOUDY    74  62  67 CALM      29.90F
CADILLAC       CLOUDY    74  64  72 SE5       29.95S
CHARLEVOIX     CLOUDY    75  60  59 SE8       29.92F
FRANKFORT      CLOUDY    75  71  87 SW3       29.90S
GAYLORD        CLOUDY    72  56  57 SE12      29.96S
GRAYLING       CLOUDY    73  61  67 SE6       29.96S
HARBOR SPRINGS CLOUDY    74  60  61 E6        29.91S
HOUGHTON LAKE  CLOUDY    72  60  66 SE7       29.97S
MANISTEE       CLOUDY    74  70  87 S3        29.90F
OSCODA         CLOUDY    64  60  87 CALM      29.96S
PELLSTON       MOCLDY    72  59  63 SE5       29.91F
ROGERS CITY    CLOUDY    71  57  60 S9        29.95F
TRAVERSE CITY  CLOUDY    77  63  61 VRB3      29.88F
$$
MIZ007>008-015-240800-
EASTERN UPPER MICHIGAN

CITY           SKY/WX    TMP DP  RH WIND       PRES   REMARKS
KINROSS        CLOUDY    70  61  73 SE7       29.93F
MACKINAC ISLAN CLOUDY    74  56  53 SE9       29.91F
NEWBERRY       CLOUDY    71  61  70 SE6       29.90F
S. S. MARIE    CLOUDY    69  64  84 E3        29.92F
$$
MIZ004>006-011>014-085-240800-
CENTRAL UPPER MICHIGAN

CITY           SKY/WX    TMP DP  RH WIND       PRES   REMARKS
ESCANABA       CLOUDY    66  64  94 CALM      29.87S
MENOMINEE      CLOUDY    73  72  96 S9        29.85F
SAWYER-GWINN   HVY RAIN  65  64  94 S9        29.89F
$$
MIZ001>003-009>011-084-240800-
WESTERN UPPER MICHIGAN

CITY           SKY/WX    TMP DP  RH WIND       PRES   REMARKS
IRON MOUNTAIN  RAIN      69  66  90 CALM      29.86F FOG
HOUGHTON       LGT RAIN  65  63  93 E6        29.83F
COPPER HARBOR    N/A     70  63  78 SW9G21    29.83S
IRONWOOD       PTCLDY    70  66  88 S8        29.80S
$$

ABBREVIATIONS USED IN REMARKS
   TC - TEMPERATURE IN CELSIUS
  WCI - WIND CHILL INDEX
   HX - HEAT INDEX
  VSB - VISIBILITY





USA.gov is the U.S. government's official web portal to all federal, state and local government web resources and services.